Tiree, United Kingdom

3:07 AM BST on April 25, 2018 (GMT +0100)
Tiree

Weather History for EGPU - December, 2011

Change the Weather History Date:

Wednesday, December 28, 2011

  Actual Average Record
Temperature  
Mean Temperature 44 °F -  
Max Temperature 46 °F 45 °F 54 °F (2015)
Min Temperature 41 °F 37 °F 30 °F (2008)
Degree Days  
Heating Degree Days 22    
Moisture  
Dew Point 38 °F    
Average Humidity 76    
Maximum Humidity 93    
Minimum Humidity 57    
Precipitation  
Precipitation 0.16 in 0.17 in - ()
Sea Level Pressure  
Sea Level Pressure 29.58 in    
Wind  
Wind Speed 37 mph ()    
Max Wind Speed 59 mph    
Max Gust Speed 79 mph    
Visibility 5.2 miles    
Events Rain    
Averages and records for this station are not official NWS values.
T = Trace of Precipitation, MM = Missing Value Source: Averaged Metar Reports

Daily Weather History Graph

Daily Weather History Graph

Search for Another Location

Airport or City:

Astronomy

Dec. 28, 2011 Rise Set
Actual Time 9:02 AM GMT 3:55 PM GMT
Civil Twilight 8:14 AM GMT 4:43 PM GMT
Nautical Twilight 7:24 AM GMT 5:33 PM GMT
Astronomical Twilight 6:38 AM GMT 6:19 PM GMT
Moon 10:34 AM GMT (12/28) 9:10 PM GMT (12/28)
Length of Visible Light 8h 29m
Length of Day
6h 52m
Waxing Crescent, 16% of the Moon is Illuminated
Dec 28
Waxing Crescent
Jan 1
First Quarter
Jan 9
Full
Jan 16
Last Quarter
Jan 23
New

Hourly Weather History & Observations

Time (GMT) Temp. Windchill Dew Point Humidity Pressure Visibility Wind Dir Wind Speed Gust Speed Precip Events Conditions
1:50 AM 48.2 °F - 41.0 °F 76% 29.53 in 6.2 mi SW 26.5 mph - N/A   Partly Cloudy
2:20 AM 48.2 °F - 41.0 °F 76% 29.53 in 5.6 mi SW 29.9 mph 41.4 mph N/A   Unknown
2:50 AM 47 °F - 40 °F 69% 29.53 in 6 mi SW 29.9 mph - -   Light Haze
2:50 AM 46.4 °F 37.2 °F 41.0 °F 81% 29.50 in 5.6 mi SW 29.9 mph - N/A   Partly Cloudy
4:50 AM 46.4 °F 35.7 °F 37.4 °F 71% 29.42 in 6.2 mi SW 41.4 mph 57.5 mph N/A   Scattered Clouds
5:20 AM 46.4 °F 36.0 °F 39.2 °F 76% 29.39 in 5.6 mi SW 39.1 mph 56.4 mph N/A   Scattered Clouds
5:50 AM 47 °F - 39 °F 65% 29.37 in 6 mi SW 42.6 mph - -   Light Haze
5:50 AM 46.4 °F 35.6 °F 39.2 °F 76% 29.36 in 5.6 mi SW 42.6 mph 58.7 mph N/A   Scattered Clouds
6:20 AM 44.6 °F 32.8 °F 41.0 °F 87% 29.33 in 3.7 mi SW 44.9 mph 63.3 mph N/A Rain Light Rain Showers
6:50 AM 44.6 °F 32.9 °F 41.0 °F 87% 29.30 in 3.1 mi SW 43.7 mph 61.0 mph N/A Rain Light Rain Showers
7:20 AM 44.6 °F 33.1 °F 42.8 °F 93% 29.30 in 4.3 mi WSW 42.6 mph 61.0 mph N/A   Mostly Cloudy
7:50 AM 46.4 °F 35.5 °F 42.8 °F 87% 29.27 in - WSW 43.7 mph 59.8 mph N/A   Haze
8:20 AM 46.4 °F 35.5 °F 42.8 °F 87% 29.27 in 3.1 mi West 43.7 mph 61.0 mph N/A   Haze
8:50 AM 46 °F - 41 °F 78% 29.29 in 4 mi West 47.2 mph - - Rain Rain
8:50 AM 46.4 °F 35.2 °F 41.0 °F 81% 29.27 in 3.7 mi West 46.0 mph 63.3 mph N/A   Overcast
10:20 AM 44.6 °F 32.2 °F 41.0 °F 87% 29.30 in - West 50.6 mph 69.0 mph N/A   Haze
10:50 AM 44.6 °F 32.7 °F 41.0 °F 87% 29.33 in 5.6 mi West 46.0 mph 63.3 mph N/A Rain Light Rain
11:20 AM 44.6 °F 32.6 °F 41.0 °F 87% 29.33 in 3.1 mi West 47.2 mph 64.4 mph N/A Rain Light Rain
11:50 AM 45 °F - 42 °F 87% 29.35 in 3 mi West 46.0 mph - - Rain Rain
11:50 AM 44.6 °F 32.7 °F 42.8 °F 93% 29.33 in 3.1 mi West 46.0 mph 65.6 mph N/A Rain Light Rain
12:20 PM 46.4 °F 34.5 °F 39.2 °F 76% 29.36 in 3.1 mi WNW 54.1 mph 70.2 mph N/A Rain Light Rain
12:50 PM 46.4 °F 34.7 °F 41.0 °F 81% 29.39 in 3.1 mi WNW 51.8 mph 71.3 mph N/A Rain Light Rain
1:20 PM 44.6 °F 31.8 °F 39.2 °F 81% 29.42 in - WNW 55.2 mph 72.5 mph N/A Rain Light Rain
2:20 PM 46.4 °F 34.1 °F 37.4 °F 71% 0.00 in - WNW 58.7 mph 79.4 mph N/A   Unknown
2:50 PM 46 °F - 36 °F 57% 29.52 in 3 mi WNW 56.4 mph - -   Light Haze
2:50 PM 46.4 °F 34.3 °F 35.6 °F 66% 29.50 in 3.1 mi WNW 56.4 mph 73.6 mph N/A   Overcast
3:20 PM 46.4 °F 34.6 °F 37.4 °F 71% 29.56 in 3.1 mi NW 52.9 mph 70.2 mph N/A   Haze
3:50 PM 44.6 °F 31.9 °F 35.6 °F 71% 29.59 in 3.1 mi NW 54.1 mph 72.5 mph N/A Rain Light Rain Showers
4:20 PM 44.6 °F 31.9 °F 37.4 °F 76% 29.62 in 3.7 mi NW 54.1 mph 72.5 mph N/A   Mostly Cloudy
4:50 PM 44.6 °F 32.6 °F 39.2 °F 81% 29.68 in 5.0 mi NW 47.2 mph 63.3 mph N/A   Partly Cloudy
5:20 PM 44.6 °F 32.8 °F 37.4 °F 76% 29.71 in 4.3 mi NW 44.9 mph 61.0 mph N/A   Partly Cloudy
5:50 PM 44 °F - 35 °F 59% 29.76 in 6 mi NW 49.5 mph - - Rain Rain
5:50 PM 44.6 °F 32.3 °F 33.8 °F 66% 29.74 in 5.0 mi NW 49.5 mph 66.7 mph N/A   Mostly Cloudy
6:20 PM 44.6 °F 32.3 °F 30.2 °F 57% 29.77 in 6.2 mi NW 49.5 mph 64.4 mph N/A   Mostly Cloudy
6:50 PM 44.6 °F 32.9 °F 33.8 °F 66% 29.80 in 6.2 mi NW 43.7 mph 56.4 mph N/A   Mostly Cloudy
7:20 PM 44.6 °F 33.3 °F 33.8 °F 66% 29.83 in 6.2 mi NW 40.3 mph - N/A   Mostly Cloudy
7:50 PM 42.8 °F 31.4 °F 35.6 °F 76% 29.86 in 6.2 mi NW 35.7 mph 49.5 mph N/A   Scattered Clouds
8:20 PM 42.8 °F 31.9 °F 35.6 °F 76% 29.86 in 6.2 mi NW 32.2 mph 46.0 mph N/A   Partly Cloudy
8:50 PM 44 °F - 34 °F 58% 29.90 in 11 mi WNW 34.5 mph - -   Scattered Clouds
8:50 PM 42.8 °F 31.6 °F 33.8 °F 70% 29.89 in 6.2 mi WNW 34.5 mph - N/A   Partly Cloudy
9:20 PM 42.8 °F 32.7 °F 35.6 °F 76% 29.89 in 6.2 mi NW 27.6 mph - N/A   Partly Cloudy
9:50 PM 42.8 °F 31.1 °F 33.8 °F 70% 29.92 in 6.2 mi NW 38.0 mph - N/A   Partly Cloudy
10:20 PM 42.8 °F 32.3 °F 35.6 °F 76% 29.92 in 6.2 mi NW 29.9 mph - N/A   Unknown
10:50 PM 41.0 °F 29.5 °F 35.6 °F 81% 29.92 in 6.2 mi WNW 32.2 mph - N/A   Partly Cloudy
11:20 PM 42.8 °F 33.3 °F 35.6 °F 76% 29.92 in 6.2 mi NW 24.2 mph - N/A   Unknown
11:50 PM 42 °F - 37 °F 78% 29.93 in 11 mi WNW 19.6 mph - - Rain Rain
11:50 PM 42.8 °F 34.3 °F 37.4 °F 81% 29.92 in 6.2 mi WNW 19.6 mph - N/A   Partly Cloudy